Weather History for Wheeler AAF, HI

Change the Weather History Date:

Thursday, April 18, 2013

  Actual Average Record
Temperature  
Mean Temperature 72 °F -  
Max Temperature 78 °F 76 °F 82 °F (2002)
Min Temperature 67 °F 62 °F 60 °F (1998)
Cooling Degree Days 8    
Growing Degree Days 22 (Base 50)    
Moisture  
Dew Point 64 °F    
Average Humidity 78    
Maximum Humidity 88    
Minimum Humidity 58    
Precipitation  
Precipitation 0.00 in - - ()
Sea Level Pressure  
Sea Level Pressure 30.11 in    
Wind  
Wind Speed 5 mph (ENE)    
Max Wind Speed 17 mph    
Max Gust Speed 24 mph    
Visibility 10 miles    
Events Rain    
Averages and records for this station are not official NWS values.
T = Trace of Precipitation, MM = Missing Value Source: NWS Daily Summary

Daily Weather History Graph

Daily Weather History Graph

Search for Another Location

Airport:

Trip Planner

Search our weather history database for the weather conditions in past years. The results will help you decide how hot, cold, wet, or windy it might be!

Date:

Astronomy

Apr. 18, 2013 Rise Set
Actual Time 6:10 AM HST 6:52 PM HST
Civil Twilight 5:47 AM HST 7:15 PM HST
Nautical Twilight 5:20 AM HST 7:42 PM HST
Astronomical Twilight 4:53 AM HST 8:09 PM HST
Moon 12:39 PM HST 1:05 AM HST
Length of Visible Light 13h 28m
Length of Day
12h 42m
First Quarter, 54% of the Moon is Illuminated
Apr 18
First Quarter
Apr 25
Full
May 2
Last Quarter
May 9
New
May 17
First Quarter

Hourly Weather History & Observations

Time (HST) Temp. Dew Point Humidity Pressure Visibility Wind Dir Wind Speed Gust Speed Precip Events Conditions
12:55 AM 70.3 °F 62.2 °F 75% 30.10 in 10.0 mi Calm Calm - N/A   Mostly Cloudy
1:55 AM 68.7 °F 61.7 °F 78% 30.09 in 10.0 mi Calm Calm - N/A   Scattered Clouds
2:55 AM 68.7 °F 62.4 °F 80% 30.08 in 10.0 mi Calm Calm - N/A   Overcast
3:55 AM 68.2 °F 62.2 °F 81% 30.07 in 10.0 mi Calm Calm - N/A   Overcast
4:55 AM 67.5 °F 62.4 °F 84% 30.08 in 10.0 mi West 3.5 mph - N/A   Mostly Cloudy
5:55 AM 68.5 °F 63.1 °F 83% 30.09 in 10.0 mi Calm Calm - N/A   Scattered Clouds
6:55 AM 67.8 °F 63.0 °F 84% 30.11 in 10.0 mi WSW 3.5 mph - N/A   Mostly Cloudy
7:55 AM 71.1 °F 63.1 °F 76% 30.12 in 10.0 mi ENE 9.2 mph - N/A   Partly Cloudy
8:42 AM 71.6 °F 64.4 °F 78% 30.14 in 9.0 mi ENE 5.8 mph - N/A   Heavy Drizzle
8:51 AM 71.6 °F 64.4 °F 78% 30.13 in 10.0 mi NE 4.6 mph - N/A   Mostly Cloudy
8:55 AM 72.1 °F 64.9 °F 78% 30.14 in 10.0 mi NE 5.8 mph - 0.00 in   Mostly Cloudy
9:55 AM 75.9 °F 62.8 °F 64% 30.14 in 10.0 mi East 12.7 mph 18.4 mph N/A   Partly Cloudy
10:55 AM 75.9 °F 63.0 °F 64% 30.14 in 10.0 mi ENE 11.5 mph - N/A   Scattered Clouds
11:55 AM 77.0 °F 63.3 °F 63% 30.13 in 10.0 mi East 9.2 mph - N/A   Scattered Clouds
12:55 PM 78.4 °F 62.6 °F 58% 30.10 in 10.0 mi East 13.8 mph 18.4 mph N/A   Scattered Clouds
1:55 PM 78.8 °F 63.0 °F 58% 30.08 in 10.0 mi East 17.3 mph 24.2 mph N/A   Clear
2:55 PM 77.5 °F 64.4 °F 64% 30.07 in 10.0 mi East 16.1 mph - N/A   Scattered Clouds
3:55 PM 74.3 °F 64.4 °F 71% 30.07 in 10.0 mi East 12.7 mph - N/A   Mostly Cloudy
4:40 PM 73.4 °F 64.4 °F 73% 30.06 in 10.0 mi Variable 6.9 mph - N/A   Overcast
4:55 PM 74.1 °F 64.8 °F 72% 30.07 in 10.0 mi ESE 10.4 mph - N/A   Overcast
5:05 PM 73.4 °F 64.4 °F 73% 30.07 in 10.0 mi ESE 8.1 mph - N/A   Mostly Cloudy
5:55 PM 73.4 °F 64.4 °F 73% 30.08 in 10.0 mi East 10.4 mph - N/A   Overcast
6:06 PM 73.4 °F 64.4 °F 73% 30.09 in 10.0 mi ESE 10.4 mph - N/A   Overcast
6:15 PM 71.6 °F 64.4 °F 78% 30.09 in 10.0 mi East 6.9 mph - N/A   Mostly Cloudy
6:42 PM 71.6 °F 64.4 °F 78% 30.10 in 10.0 mi East 9.2 mph - N/A   Mostly Cloudy
6:55 PM 71.1 °F 65.1 °F 81% 30.10 in 10.0 mi ESE 6.9 mph - N/A   Mostly Cloudy
7:02 PM 69.8 °F 64.4 °F 83% 30.11 in 10.0 mi ESE 6.9 mph - N/A   Mostly Cloudy
7:55 PM 70.2 °F 64.2 °F 81% 30.12 in 10.0 mi Calm Calm - N/A   Mostly Cloudy
8:13 PM 69.8 °F 64.4 °F 83% 30.12 in 10.0 mi NE 4.6 mph - N/A Rain Light Rain
8:18 PM 69.8 °F 64.4 °F 83% 30.12 in 10.0 mi NE 4.6 mph - N/A   Partly Cloudy
8:21 PM 69.8 °F 64.4 °F 83% 30.12 in 10.0 mi Calm Calm - N/A Rain Light Rain
8:23 PM 69.8 °F 64.4 °F 83% 30.12 in 10.0 mi Calm Calm - N/A   Clear
8:46 PM 69.8 °F 64.4 °F 83% 30.12 in 10.0 mi ENE 8.1 mph - N/A   Light Drizzle
8:55 PM 70.2 °F 64.0 °F 81% 30.13 in 10.0 mi East 4.6 mph - 0.00 in   Light Drizzle
9:14 PM 69.8 °F 64.4 °F 83% 30.13 in 10.0 mi ENE 4.6 mph - N/A   Partly Cloudy
9:44 PM 69.8 °F 64.4 °F 83% 30.13 in 10.0 mi ENE 8.1 mph - N/A Rain Light Rain
9:55 PM 69.3 °F 64.2 °F 84% 30.13 in 10.0 mi East 5.8 mph - 0.00 in   Partly Cloudy
10:12 PM 69.8 °F 64.4 °F 83% 30.14 in 10.0 mi NE 6.9 mph - N/A Rain Light Rain
10:21 PM 69.8 °F 64.4 °F 83% 30.14 in 10.0 mi ENE 5.8 mph - N/A   Clear
10:50 PM 69.8 °F 64.4 °F 83% 30.13 in 10.0 mi ENE 9.2 mph - N/A   Light Drizzle
10:55 PM 69.3 °F 64.2 °F 84% 30.13 in 10.0 mi NE 8.1 mph - 0.00 in   Light Drizzle
11:00 PM 69.8 °F 64.4 °F 83% 30.12 in 10.0 mi NE 6.9 mph - N/A   Partly Cloudy
11:20 PM 68.0 °F 64.4 °F 88% 30.12 in 10.0 mi ENE 8.1 mph - N/A   Light Drizzle
11:25 PM 68.0 °F 64.4 °F 88% 30.12 in 10.0 mi ENE 8.1 mph - N/A   Partly Cloudy
11:55 PM 68.4 °F 64.4 °F 87% 30.10 in 10.0 mi ENE 8.1 mph - 0.00 in   Partly Cloudy